Giovedi 25 Aprile 2019

 
Calliano - Provincia di Trento

189 mslm

45° 55' 59'' N 11° 05' 53'' E

Pagine realizzate e gestite da Andrea Pernecher

 

Tutti gli orari sono riferiti all'ora solare (GMT+1h)

>stazione meteo :: i dati del giorno  

 Dati relativi a GIOVEDI 25 APRILE 2019 ORE 21.24
 

 TEMPERATURA

13,9 °C

 

 ESCURS. TERMICA 10,7 °C

 

 

 TEMPERATURA MIN

11,6 °C

alle 02:45

 

 TEMPERATURA MAX 22,3 °C

alle 13:50

 

 TEMP.MEDIA INTEG.

15.6 °C

       
 

 PRESSIONE

1.017 mbar

 

 UMIDITA' 83 %

 

 PIOGGIA

2,5 mm

 

 INTENS. PIOGGIA 0,0 mm/h

 

 VENTO MAX

10,1 m/s

N

 

 DEW POINT

11,1 °C

 
Immagini WebCam
ORE 8.00 ORE 12.00 ORE 16.00

> visualizza webcam 24 ore

 

 Dettaglio rilevazioni di Giovedi 25 Aprile 2019 (ogni 15 minuti)
Ora Temperatura °C Umidità R. % Pressione mbar Vento m/s Dew Point °C Pioggia totale caduta mm Intensità della pioggia mm/h
  TEMPERATURA UMIDITA' PRESSIONE VENTO DEW POINT PIOGGIA INTENS. PIOGGIA
21:00 14,0 82 1.017 0,0 N 11,0 2,5 0,0
20:45 14,0 81 1.017 0,0 N 10,8 2,5 0,0
20:30 14,2 80 1.017 0,0 N 10,8 2,5 0,0
20:15 14,2 80 1.017 0,0 ESE 10,8 2,5 0,0
20:00 14,3 79 1.017 0,0 NNW 10,7 2,5 0,0
19:45 14,4 78 1.017 0,0 ENE 10,6 2,5 0,0
19:30 14,5 77 1.017 0,0 S 10,5 2,5 0,0
19:15 14,6 76 1.017 0,0 S 10,4 2,5 0,0
19:00 14,7 75 1.017 0,0 SE 10,3 2,5 1,4
18:45 14,9 74 1.017 0,0 SE 10,3 2,2 2,0
18:30 15,1 73 1.017 1,4 SSW 10,3 1,8 4,0
18:15 15,2 71 1.017 1,2 SW 10,0 1,3 0,0
18:00 15,5 70 1.018 1,6 SSE 10,1 1,3 3,3
17:45 15,7 68 1.017 1,4 WSW 9,8 1,2 2,0
17:30 15,9 66 1.017 1,6 S 9,6 0,8 1,1
17:15 16,4 63 1.017 1,2 SSE 9,3 0,7 2,0
17:00 16,7 61 1.017 1,2 W 9,1 0,5 0,0
16:45 17,2 54 1.017 2,2 WSW 7,8 0,5 3,3
16:30 18,2 49 1.017 1,6 SSE 7,3 0,2 0,0
16:15 19,0 46 1.017 1,8 S 7,1 0,2 0,0
16:00 19,5 43 1.016 1,4 SW 6,6 0,2 0,0
15:45 19,8 39 1.016 2,8 WSW 5,5 0,2 0,0
15:30 19,3 41 1.016 2,8 SW 5,7 0,2 0,0
15:15 19,5 42 1.016 2,6 S 6,3 0,2 0,0
15:00 20,0 41 1.016 4,5 SSW 6,4 0,2 0,0
14:45 20,4 40 1.016 1,8 SSW 6,4 0,2 0,0
14:30 21,3 36 1.016 2,8 SW 5,6 0,2 0,0
14:15 21,7 36 1.016 1,6 SW 6,0 0,2 0,0
14:00 22,0 33 1.016 2,2 SW 5,0 0,2 0,0
13:45 22,1 36 1.016 0,0 WSW 6,3 0,2 0,0
13:30 21,9 38 1.016 2,4 SSE 7,0 0,2 0,0
13:15 21,6 42 1.016 1,2 SSW 8,1 0,2 0,0
13:00 21,1 42 1.016 1,6 SSE 7,7 0,2 0,0
12:45 21,0 42 1.016 0,0 S 7,6 0,2 0,0
12:30 20,9 41 1.017 1,6 WSW 7,2 0,2 0,0
12:15 20,8 43 1.017 1,2 SW 7,8 0,2 0,0
12:00 20,5 43 1.017 1,6 SSE 7,5 0,2 0,0
11:45 20,3 43 1.017 2,6 W 7,3 0,2 0,0
11:30 20,3 45 1.017 2,8 SSW 8,0 0,2 0,0
11:15 20,3 52 1.017 2,4 S 10,1 0,2 0,0
11:00 20,0 57 1.017 1,4 SSW 11,2 0,2 0,0
10:45 19,4 62 1.017 1,6 S 11,9 0,2 0,0
10:30 18,4 64 1.017 0,0 SSE 11,5 0,2 0,0
10:15 17,2 63 1.017 1,2 E 10,1 0,2 0,0
10:00 17,0 66 1.017 1,4 NNW 10,6 0,2 0,0
09:45 16,4 69 1.018 1,6 ENE 10,7 0,2 0,0
09:30 15,7 74 1.017 2,6 ENE 11,1 0,2 0,0
09:15 14,9 86 1.018 2,4 NE 12,6 0,2 0,0
09:00 14,8 92 1.018 1,6 NNE 13,5 0,2 0,0
08:45 14,2 92 1.018 1,4 ESE 12,9 0,2 0,0
08:30 13,7 93 1.018 1,8 NE 12,6 0,2 0,0
08:15 13,4 92 1.018 1,4 NNE 12,1 0,2 0,0
08:00 13,0 92 1.018 1,2 NNE 11,7 0,2 0,0
07:45 12,8 92 1.018 1,2 N 11,5 0,2 0,0
07:30 12,5 92 1.018 0,0 N 11,2 0,2 0,0
07:15 12,3 91 1.017 1,2 N 10,9 0,2 0,0
07:00 12,2 91 1.017 0,0 WSW 10,8 0,2 0,0
06:45 12,0 91 1.017 0,0 SSW 10,6 0,2 0,0
06:30 12,0 91 1.017 0,0 SSW 10,6 0,2 0,0
06:15 11,9 91 1.017 0,0 SSW 10,5 0,2 0,0
06:00 11,9 91 1.017 0,0 SW 10,5 0,2 0,0
05:45 12,0 90 1.017 1,2 S 10,4 0,2 0,0
05:30 12,0 90 1.017 1,0 SE 10,4 0,2 0,0
05:15 12,0 90 1.017 1,8 S 10,4 0,2 0,0
05:00 12,0 90 1.017 1,2 S 10,4 0,2 0,0
04:45 11,9 90 1.016 0,0 SE 10,3 0,2 0,0
04:30 12,0 90 1.016 0,0 SE 10,4 0,2 0,0
04:15 12,0 90 1.017 0,0 SE 10,4 0,2 0,0
04:00 12,0 90 1.017 0,0 SE 10,4 0,2 0,0
03:45 11,9 90 1.016 1,6 SSE 10,3 0,2 0,0
03:30 11,9 90 1.016 0,0 SSE 10,3 0,2 0,0
03:15 11,7 90 1.016 0,0 SE 10,1 0,2 0,0
03:00 11,7 90 1.016 0,0 SE 10,1 0,2 0,0
02:45 11,6 89 1.016 0,0 SE 9,9 0,2 0,0
02:30 11,8 89 1.016 1,2 SE 10,0 0,2 1,4
02:15 11,7 89 1.016 1,0 ENE 9,9 0,0 0,0
02:00 11,9 89 1.016 0,0 ENE 10,1 0,0 0,0
01:45 12,0 88 1.016 0,0 NNE 10,1 0,0 0,0
01:30 12,1 88 1.016 0,0 N 10,2 0,0 0,0
01:15 12,1 88 1.016 0,0 SE 10,2 0,0 0,0
01:00 12,4 88 1.016 0,0 SE 10,5 0,0 0,0
00:45 12,6 88 1.016 1,4 SE 10,7 0,0 0,0
00:30 12,9 88 1.016 1,6 N 11,0 0,0 0,0
00:15 13,0 87 1.016 0,0 NE 10,9 0,0 0,0
00:00 12,9 88 1.016 0,0 NE 11,0 0,0 0,0

 

 

Stampa paginastampa    torna in cima

 2002-2019 osservatoriocalliano.it